GFSGL_925_rhum_069.txt.gz
RH
70 72 73 73 74 75 72 79 76 78 82 92 91 92 99 99 100 100 99 100 100 100 100 100 100 96 87 88 87 86 86 90 97 89 80 76 71 60 58 57 59 63 63
62 63 64 64 64 68 74 82 78 81 75 76 99 96 100 100 100 100 100 100 100 99 99 100 95 90 91 91 89 87 90 86 92 93 87 80 78 71 71 70 66 68 69
70 65 65 62 59 72 83 78 81 84 76 69 67 93 100 99 100 100 100 100 100 100 100 94 92 94 91 92 92 85 81 83 92 91 87 79 66 61 61 60 60 62 65
77 77 74 76 87 88 91 81 95 97 87 85 100 100 100 100 100 100 100 100 100 100 96 95 93 92 95 87 83 82 80 73 65 64 64 62 62 58 54 65 67 69 74
81 80 80 86 90 90 86 87 100 98 100 100 100 100 100 100 100 100 100 100 99 99 94 96 99 93 87 76 67 65 63 61 59 53 47 48 48 45 59 66 84 77 80
86 88 92 100 94 100 94 99 100 100 100 100 100 100 100 100 100 100 100 100 98 93 100 99 82 71 65 63 62 60 56 43 31 36 47 64 71 75 75 85 90 92 84
92 100 100 100 100 100 100 100 100 100 100 100 100 100 100 100 100 100 99 93 94 99 95 77 70 66 64 60 52 40 21 28 49 66 78 76 91 88 94 97 100 99 95
100 100 100 100 100 100 100 100 100 100 100 100 100 100 100 100 100 98 94 96 96 84 74 69 66 60 50 35 24 20 32 40 48 59 80 86 94 100 100 100 100 100 94
100 100 100 100 100 100 100 100 100 100 100 100 100 100 100 100 97 96 96 90 78 70 66 59 46 34 26 17 36 46 44 48 58 47 63 71 74 83 95 94 98 99 90
100 100 100 100 100 100 99 99 100 100 100 100 100 99 97 100 100 100 93 78 68 62 47 36 23 22 24 60 72 64 76 78 60 48 37 35 51 74 78 87 98 99 96
99 100 100 100 100 100 100 100 100 100 100 100 98 100 100 99 95 85 72 64 56 41 31 29 27 27 49 78 83 74 85 78 60 59 59 69 80 84 78 92 90 99 98
99 98 99 99 100 100 100 100 100 100 98 99 94 90 81 73 68 59 54 46 35 23 32 32 33 52 81 86 72 79 78 60 65 73 83 92 93 88 80 86 84 89 95
94 96 97 98 99 99 95 95 98 99 100 96 89 86 83 77 68 60 56 48 30 23 29 38 55 76 80 71 69 80 68 65 69 90 99 97 100 81 83 91 91 94 95
96 98 95 94 94 93 90 91 95 100 99 94 93 96 92 86 76 68 58 38 30 35 50 63 73 75 72 70 73 83 67 77 77 95 89 99 98 96 94 90 100 97 99
89 87 85 86 87 88 87 86 87 90 90 86 87 83 84 85 77 68 51 38 45 61 77 84 76 73 73 81 86 84 84 90 94 90 94 97 100 97 100 94 100 100 100
80 79 79 78 78 80 78 78 72 70 72 71 70 68 78 75 82 70 64 74 88 91 89 80 79 78 78 93 96 98 97 95 97 97 93 94 100 97 100 100 100 100 100
77 77 76 70 70 70 71 75 89 77 65 69 69 66 66 73 69 86 84 90 91 73 66 79 82 80 82 97 99 99 98 97 100 95 79 94 98 93 100 100 100 100 98
72 74 73 70 67 62 60 63 59 74 93 99 91 85 88 88 88 82 84 85 88 81 81 85 85 85 92 98 98 97 96 91 90 80 83 95 93 99 100 100 100 100 100
85 88 84 83 76 75 81 86 88 92 95 96 96 97 97 95 95 95 95 95 95 94 91 93 88 91 88 86 82 82 90 90 84 89 89 96 92 100 100 100 100 100 100
95 95 95 97 97 97 96 96 96 96 96 96 96 96 96 96 95 95 95 95 95 93 94 92 92 93 84 80 83 90 89 88 92 92 93 97 93 100 100 100 100 100 100
97 96 96 96 96 96 96 96 96 96 96 96 96 96 96 95 95 95 95 96 96 96 96 96 96 88 83 86 90 89 92 94 88 91 97 97 97 100 100 100 100 100 100
96 96 95 95 95 94 95 95 95 95 95 95 95 95 95 95 95 96 96 96 96 96 96 96 93 89 89 90 87 90 98 92 90 95 99 100 100 100 100 100 100 100 100
95 95 95 96 95 95 96 96 95 95 95 95 95 96 96 96 96 96 96 97 97 96 96 96 95 93 89 86 78 87 97 99 99 100 100 100 100 100 100 100 100 100 100
95 95 95 96 95 95 95 96 96 95 96 95 95 96 96 96 96 96 96 95 94 93 94 98 98 93 85 77 78 91 95 99 100 100 100 100 100 99 100 100 100 100 100
94 95 95 95 95 96 95 96 96 97 98 98 100 97 96 97 96 93 90 86 87 94 98 98 94 84 81 82 87 91 99 100 100 100 100 100 100 100 100 100 100 100 100
90 90 90 87 87 88 91 92 92 90 89 90 90 93 100 100 99 96 95 98 98 95 92 87 85 87 88 87 90 97 99 96 94 99 100 100 100 99 100 100 100 100 100

GFSGL_925_rhum_072.txt.gz
RH
91 89 88 85 82 79 78 76 74 75 68 66 69 77 86 93 97 100 100 99 100 100 100 100 99 100 100 98 91 89 89 91 97 93 86 79 77 76 70 67 64 60 58
83 82 80 76 73 68 67 68 62 67 69 67 73 80 93 98 100 98 98 100 99 100 100 100 100 100 99 92 88 87 88 91 96 98 91 86 80 71 62 59 55 51 47
79 80 82 80 73 76 79 80 82 82 72 67 70 84 93 100 80 91 94 99 100 100 100 100 99 99 91 91 91 95 94 90 93 95 83 74 62 58 54 39 20 10 12
77 75 76 79 69 75 74 76 78 80 71 78 85 91 96 99 94 91 100 100 100 100 100 100 100 95 92 93 97 92 89 84 73 66 63 59 55 38 20 27 46 32 45
78 76 73 71 69 72 73 78 81 86 74 93 97 99 95 89 93 99 100 100 100 100 100 100 98 96 96 96 87 84 72 64 62 56 48 43 31 37 58 68 82 84 79
80 80 77 76 75 77 82 87 99 100 98 99 100 99 92 100 99 100 100 100 100 100 100 100 100 99 96 86 77 69 62 56 43 31 35 52 52 67 72 87 99 99 83
84 82 83 84 85 90 94 98 100 100 100 100 100 100 100 100 100 100 100 100 100 99 99 98 88 82 82 73 66 55 37 23 32 39 51 66 74 59 91 99 94 94 96
90 89 89 92 98 99 99 100 100 100 99 99 100 100 100 100 100 100 99 100 100 100 97 87 82 76 70 58 45 28 30 38 45 53 55 53 68 70 91 91 94 92 91
92 95 99 99 100 100 100 100 100 100 100 100 100 100 100 100 100 100 100 99 99 90 83 78 70 60 50 24 23 30 39 47 49 37 34 30 27 36 73 100 100 100 91
100 100 100 100 99 99 99 99 99 100 100 100 100 100 100 100 100 100 97 93 84 75 65 55 46 35 23 27 42 46 54 65 51 36 26 22 28 36 50 66 98 100 99
100 100 99 100 100 100 100 100 100 100 100 100 100 100 100 100 100 100 93 83 74 62 52 41 32 26 43 75 74 62 70 63 48 41 40 37 40 41 46 49 70 98 100
99 100 100 100 100 100 100 100 100 100 100 100 100 100 100 99 96 90 78 66 57 50 36 32 30 40 76 84 72 70 66 53 44 46 53 78 85 90 64 53 64 78 94
100 100 100 100 100 100 100 100 100 100 100 100 100 98 90 80 72 65 57 44 33 26 25 27 37 68 89 78 68 68 58 51 55 63 93 87 91 96 89 76 76 74 75
100 100 100 100 100 100 100 100 100 100 99 98 96 94 88 80 72 60 52 43 30 23 32 50 64 80 76 72 67 74 70 71 70 96 93 89 93 96 94 91 95 89 99
99 98 100 100 99 99 100 100 100 99 93 92 89 84 82 80 72 64 56 43 35 42 57 80 86 82 77 78 85 81 77 83 90 97 98 97 94 97 93 94 99 98 99
92 94 97 97 96 97 97 98 98 99 99 94 91 89 94 91 87 85 72 50 79 82 87 90 81 75 76 83 90 88 86 91 97 100 100 96 93 98 95 95 97 96 99
92 92 92 92 90 89 91 96 99 100 98 98 97 97 97 95 95 76 51 90 85 93 78 80 77 78 76 90 97 98 100 96 99 100 98 96 99 100 98 97 97 96 97
91 93 97 97 98 97 97 97 97 97 97 98 96 92 91 83 79 88 91 91 95 95 86 80 82 82 85 96 97 98 96 87 91 95 90 88 88 99 100 98 98 100 100
100 100 100 99 98 97 96 96 96 96 96 96 96 96 96 96 96 97 96 95 95 95 95 95 95 95 95 95 96 96 96 92 88 86 88 89 89 94 100 100 100 100 100
98 98 97 97 97 97 97 97 97 98 97 97 96 96 96 95 95 95 95 95 95 95 95 95 96 96 96 96 96 96 94 86 88 94 92 92 92 98 100 100 98 100 100
97 97 96 96 96 96 96 96 96 95 95 95 95 96 96 95 95 95 95 95 96 96 96 96 96 96 96 96 97 94 90 91 94 93 93 98 98 99 96 100 100 100 100
96 96 95 96 96 95 95 95 95 95 96 95 96 96 95 95 96 96 96 96 96 96 96 96 96 98 98 98 96 90 86 89 92 95 100 100 100 100 100 100 100 100 100
95 95 96 97 96 95 95 95 96 95 96 96 96 95 95 96 96 95 96 96 96 96 95 96 98 98 98 95 89 83 88 97 100 100 100 100 100 100 100 100 100 100 100
95 96 97 96 96 95 95 96 97 96 96 96 95 94 93 92 91 92 92 90 86 87 91 95 96 98 96 89 82 81 90 98 100 100 100 100 100 100 100 100 100 100 100
92 93 94 94 94 94 91 91 93 96 97 95 90 92 98 100 100 99 95 93 94 92 89 88 87 86 87 89 88 88 93 100 100 100 100 100 100 100 100 100 100 100 100
80 81 84 84 86 86 83 80 79 76 76 80 86 98 100 100 100 99 96 93 89 87 87 88 91 94 92 89 86 88 95 97 100 100 100 100 100 100 100 100 100 100 100

GFSGL_925_rhum_075.txt.gz
RH
88 90 87 87 83 76 71 63 65 70 67 58 57 65 61 63 64 77 88 98 99 98 99 96 100 98 99 99 99 97 89 84 84 86 80 82 78 81 82 73 64 59 60
86 87 89 89 87 83 69 61 66 68 65 70 77 68 69 66 72 62 93 99 100 99 100 100 100 100 99 100 100 94 95 94 88 90 89 87 84 82 68 61 56 43 28
86 89 88 88 88 86 82 80 80 82 85 91 83 74 63 76 78 84 100 100 100 100 98 100 100 100 100 100 99 94 92 94 94 93 93 89 78 73 66 48 25 15 14
86 87 88 88 86 85 84 85 87 87 89 86 82 71 84 92 95 96 95 98 100 100 100 100 100 100 100 100 95 94 97 94 93 86 76 70 66 62 47 41 41 52 55
85 85 84 85 85 85 84 85 84 84 87 85 76 76 69 98 98 100 99 100 100 100 100 100 100 100 100 97 93 95 92 84 79 71 64 57 46 35 41 52 63 56 53
82 82 81 82 84 85 82 85 83 83 85 84 84 89 86 99 98 96 88 95 100 100 99 100 100 100 100 100 96 87 80 70 62 58 46 37 34 55 62 67 64 59 48
80 79 79 78 80 81 82 83 86 89 94 98 99 100 100 100 99 98 99 100 100 100 100 100 100 100 100 96 85 78 74 71 49 44 44 49 58 64 74 68 63 68 64
78 77 79 81 80 80 86 88 93 99 100 100 98 99 100 100 100 100 100 100 100 100 100 100 99 96 90 80 73 58 41 39 44 45 65 68 75 77 76 69 71 72 67
80 82 81 84 85 98 100 100 100 100 100 100 100 100 100 100 100 100 100 100 100 100 100 98 92 87 85 76 48 43 58 71 48 38 28 27 27 32 49 75 66 61 67
82 86 90 97 99 99 99 99 99 100 100 100 100 100 100 100 100 100 100 100 100 98 93 90 82 69 64 37 29 48 59 65 67 60 59 46 34 55 33 72 74 75 67
99 100 100 99 99 99 100 100 100 100 100 100 100 100 100 100 100 100 100 100 96 87 78 72 60 42 29 38 42 67 68 68 57 60 61 64 67 71 73 72 68 75 75
99 99 100 100 100 100 100 100 100 100 100 100 100 100 100 100 100 100 99 96 89 76 62 52 44 50 75 66 75 63 55 50 56 72 71 71 67 70 76 74 76 79 78
100 100 100 100 100 100 100 100 100 100 100 100 100 100 100 100 99 96 90 79 62 49 39 37 52 97 94 83 74 66 55 70 77 75 72 66 67 73 74 80 76 79 82
99 100 100 100 100 100 100 100 100 100 100 100 100 100 99 96 89 66 48 40 34 39 58 89 95 97 91 84 88 85 86 89 81 80 80 79 83 81 80 80 79 78 79
100 100 100 100 100 100 100 100 99 100 99 100 100 98 97 97 85 58 48 43 47 44 51 89 92 90 91 91 92 88 86 82 80 83 85 80 77 75 78 82 82 76 75
100 100 100 100 100 100 100 100 100 100 99 98 97 96 96 95 95 93 96 96 77 33 81 95 97 95 85 82 84 84 88 88 87 90 91 87 83 77 77 80 78 78 76
99 100 99 99 100 100 100 99 99 100 98 98 98 97 97 96 96 96 96 96 99 83 93 94 94 93 89 79 83 86 90 97 100 97 97 94 89 84 84 81 80 79 76
100 100 100 100 100 100 100 100 98 96 96 98 97 96 97 96 96 96 98 90 94 94 96 96 96 96 93 93 95 95 95 97 98 96 96 96 95 90 87 83 79 80 79
95 97 100 100 98 98 98 98 98 98 97 97 98 98 96 96 96 98 95 98 95 94 95 96 99 98 98 99 100 100 100 99 99 99 98 98 96 95 90 86 86 89 90
100 98 98 98 98 98 98 98 98 97 96 96 96 99 100 98 100 100 100 100 99 96 99 96 98 100 100 100 100 100 99 98 97 94 92 95 97 98 96 94 91 89 84
97 96 97 97 97 98 98 98 97 97 97 99 100 100 97 99 99 99 98 100 100 100 100 100 100 100 100 100 100 98 97 98 97 96 95 95 98 100 97 96 92 90 88
96 97 97 98 98 98 98 98 98 97 96 95 98 100 98 100 100 100 100 100 100 100 100 100 100 100 100 100 100 100 100 100 100 100 100 100 100 98 96 94 92 91 90
97 98 98 98 98 99 99 99 98 97 97 99 99 100 100 100 100 100 100 100 100 100 94 100 100 100 100 100 100 100 100 100 100 100 100 100 99 97 95 94 93 92 90
99 100 99 99 99 100 100 100 100 100 100 100 100 100 100 100 100 100 96 98 94 98 88 83 83 87 90 98 100 100 100 100 100 100 100 100 100 100 100 96 94 93 94
100 98 100 100 100 100 100 100 100 100 100 100 100 100 100 100 100 100 99 96 86 84 80 80 82 89 96 89 85 83 90 90 100 100 100 100 100 100 100 100 99 97 95
96 98 99 98 98 98 97 97 99 99 100 100 100 100 100 100 100 100 100 97 94 96 92 100 100 86 83 89 98 98 82 84 88 99 100 100 100 100 100 100 100 97 96

GFSGL_925_rhum_078.txt.gz
RH
68 71 69 71 74 76 74 75 73 72 70 66 68 68 67 65 64 67 68 69 72 85 100 100 98 99 100 100 100 100 100 99 86 76 69 77 80 81 73 78 76 71 66
63 68 71 71 70 77 79 77 77 74 71 68 66 64 64 64 65 66 71 86 89 93 91 99 99 99 99 100 100 100 99 94 88 82 85 83 85 87 85 78 72 56 48
62 68 72 76 73 71 73 75 74 72 69 67 67 68 65 64 63 65 84 82 87 78 89 100 100 100 99 100 100 99 100 94 90 82 92 92 86 86 77 72 57 43 38
65 66 72 75 76 74 70 69 70 68 67 66 68 68 68 66 68 83 88 97 96 97 84 98 100 99 99 100 100 99 99 98 98 94 91 88 82 70 66 49 34 32 35
66 66 66 70 71 72 73 72 70 70 69 67 71 72 74 73 77 81 90 94 100 98 95 100 99 98 100 100 100 100 100 100 97 88 80 74 69 60 46 31 37 37 38
67 67 66 67 70 69 69 71 71 73 72 70 71 74 77 78 88 78 78 99 98 99 99 100 100 100 100 100 100 100 96 96 89 77 73 64 54 39 37 41 41 39 39
66 66 67 68 70 70 70 71 72 71 74 74 74 75 73 75 93 83 82 99 100 100 99 100 100 100 100 100 100 100 99 89 78 68 57 48 39 41 49 48 46 47 48
62 62 64 67 69 69 71 71 71 73 75 76 77 74 73 86 97 79 96 100 100 100 100 100 100 100 100 100 97 88 83 75 64 47 44 48 51 54 57 53 49 51 51
58 59 60 63 66 66 68 71 71 75 80 84 91 95 98 98 97 100 100 100 100 100 100 100 100 100 100 99 96 82 65 50 36 31 40 43 35 24 30 53 54 48 54
54 55 58 62 65 67 69 73 94 98 100 100 100 100 100 100 100 100 100 100 100 100 100 100 100 99 97 96 80 50 56 61 49 43 42 32 30 56 35 46 49 54 51
52 58 62 66 76 88 98 100 99 100 100 100 100 100 100 100 100 100 100 100 100 100 100 100 100 99 98 86 43 44 53 60 55 48 46 44 48 51 50 55 51 50 53
85 90 90 94 99 99 100 100 100 100 100 100 100 100 100 100 100 100 100 100 100 98 97 97 97 89 54 54 61 59 54 56 69 62 55 50 48 49 50 54 56 59 57
97 100 100 100 100 100 100 100 100 100 100 100 100 100 100 100 100 100 100 99 98 97 98 95 95 95 78 77 60 49 56 75 74 76 64 52 49 52 58 63 69 66 64
100 100 100 100 100 100 100 100 100 100 100 100 100 100 100 100 100 100 100 100 98 95 94 94 94 88 79 88 80 78 93 84 74 67 66 63 65 71 71 68 74 75 68
100 100 100 100 100 100 100 100 99 100 99 100 100 100 100 100 100 97 96 97 97 95 93 95 92 88 89 92 89 80 77 74 71 71 74 72 72 72 74 75 77 72 67
100 100 100 100 100 100 100 100 100 100 100 100 98 92 96 94 96 96 96 96 94 92 98 96 96 94 91 88 81 74 76 77 74 81 87 88 85 84 80 76 73 71 68
99 100 100 100 100 100 100 99 98 100 100 99 98 97 97 97 98 98 96 96 93 94 97 96 94 88 83 72 76 77 79 95 94 87 86 86 86 85 85 80 76 73 68
96 98 96 98 100 98 98 98 97 94 95 98 97 97 98 98 98 97 95 94 98 97 97 94 92 89 84 82 83 83 85 87 86 86 85 87 88 88 86 82 79 77 69
100 100 100 98 98 98 98 98 97 96 96 97 97 97 96 96 96 95 97 96 86 85 82 83 88 86 88 84 93 91 92 90 91 90 88 88 88 88 84 78 73 74 74
98 97 98 98 97 98 98 97 97 97 97 96 95 95 98 98 96 96 95 94 90 89 86 86 88 90 92 89 90 91 88 86 86 85 85 87 89 89 86 82 78 77 71
98 97 97 97 97 97 98 96 96 96 95 95 96 98 96 94 91 92 92 94 92 93 94 90 92 93 90 88 85 86 86 86 85 84 84 84 86 87 84 84 84 81 79
98 98 97 97 97 96 96 96 96 95 95 93 94 95 95 93 91 91 93 98 99 98 97 96 93 91 89 90 90 89 87 86 86 86 88 88 86 84 86 86 84 83 85
98 98 96 97 97 96 95 94 93 92 92 91 90 91 92 93 93 93 96 97 97 99 100 97 95 93 90 95 97 95 94 90 91 93 93 91 88 85 89 88 85 85 83
98 97 94 95 96 94 93 92 91 89 88 89 89 89 89 92 94 96 99 100 99 99 100 100 99 100 100 100 100 100 95 98 100 100 100 96 93 90 90 89 86 86 86
93 91 91 90 89 88 87 85 86 86 86 86 87 88 88 90 90 95 99 100 100 100 100 100 100 100 100 100 100 100 100 100 100 100 100 100 100 98 95 92 90 88 87
85 85 86 85 85 85 85 85 86 87 88 90 91 93 93 92 94 98 99 99 100 100 100 100 100 100 100 100 100 100 98 82 87 93 100 100 100 100 95 93 91 90 88